DMSP 5D-2 F13 DEB, 40610

Orbit data source: Space-Track

DMSP 5D-2 F13 DEB, 40610 is space debris in SSO originally from a launch on Fri, 24 Mar 1995 UTC launched from the Air Force Western Test Range (AFWTR). Debris objects in space refer to the collection of defunct objects orbiting the Earth. Examples of debris include non-operational satellites, rocket bodies, and fragments generated from explosions, collisions, or faulty payload assembly.

Loading next visibility...
Identifier
40610, 1995-015FH
Orbit
SSO
Country
Flag of USUS
Related business
Manufacturer
Unknown
Mission
Spacecraft
Bus & Motor
Unknown
Mass
Unknown
Launch date (UTC)
1995-03-24 (30 years ago)
Launch vehicle
Unknown
Launch site
Air Force Western Test Range (AFWTR)
Object type
Payload
Rocket body
Debris
Shape & HBR
Unknown
Radar Cross Section
Small (<0.1 m²)

Expand to show TLE details & history
Last TLE update: 1 day ago

TLE from 1 day ago
0 DMSP 5D-2 F13 DEB
1 40610U 95015FH  25258.05211132  .00003741  00000-0  12418-2 0  9991
2 40610  98.7086 289.5527 0027908 139.3026 221.0253 14.38154706539910
Epoch: 2025-09-15T01:15Z
TLE epoch observation values (Epoch: 2025-09-15T01:15:02.418Z)
Latitude
0.00003°
Longitude
-83.46969°
Altitude
782.607 km
Speed
7.455 km/s
True Right ascension
19h 18m 12s
True Declination
0° 00' 00"
Sunlit
Object was in daylight at epoch
Visualization orbit readout
Latitude
Unknown
Longitude
Unknown
Altitude
Unknown
Speed
Unknown
Apparent Right ascension
Unknown
Apparent Declination
Unknown
Sunlit
N/A
Visualization observer readout
Local Sidereal Time
21:21:23
Azimuth
Unknown
Elevation
Unknown
Doppler factor
Unknown
Orbital elements
Apogee altitude
781.662 km
Perigee altitude
741.81 km
Semi-major axis
7,139.873 km
Eccentricity
0.00279
Inclination
98.7086°
RAAN
289.5527°
Arg. of periapsis
139.3026°
True anomaly
220.81594°
Mean anomaly
221.0253°
Eccentric anomaly
220.92056°
Mean motion
3.59755 °/min
Orbital period
100.07 mins
BSTAR
0.0012418
Loading maneuver chart data...
Computing Atmospheric mass density...

Documentation

Showing up to 5 results
|